Content
SEND FEEDBACK

Daily
Averages
Monthly
Summary
United States of America

CLEARWATER, WASHINGTON


Home > North America > United States > Washington
Elevation: 199 feet     Latitude: 47 35N     Longitude: 124 18W

WEATHER
 
SELECT A DAY
Number of Records: 309,548;   Date Range: 1/1/95 - 11/26/14
 
SHARE

PRINT THIS DATA

[ ← Previous Day ]
WEATHER ALMANAC - JANUARY 31, 2013
[ Next Day → ]
[ °C ]   °F
Weather ElementAverageHighLow
Temperature47.2 °F50 °F (12:21 pm)43 °F (11:53 pm)
Dewpoint44.4 °F46.9 °F (12:53 pm)39.9 °F (11:53 pm)
Humidity90.1 %93 % (12:53 am)86 % (8:53 am)
Barometer30.33 in30.40 in (12:53 am)30.29 in (2:11 pm)
Wind Speed4 mph10.4 mph (10:53 am)
Wind Gust21.9 mph (9:53 am)
Weather ElementAverage
Visibility1.8 mi
Wind DirectionESE (117.3 °)

Weather ElementTotal
Precipitation0.86 in
Heating Degree Days18.5 (Base 65)
Averaged from 81 records on January 31, 2013
WEATHER CONDITIONS BREAKOUT
WIND DIRECTION BREAKOUT
WEATHER BY HOUR - JANUARY 31, 2013
[ °C ]   °F
Local TimeTemperatureDewpointHumidityBarometerVisibilityWind DirectionWind SpeedGust SpeedPrecipitationEventsConditions
12:53 AM46.9 °F45.0 °F93 %30.40 in1.0 miSouth (180°)4.6 mphOvercast
1:24 AM46.4 °F44.6 °F93 %30.39 in1.8 miSE (130°)3.5 mph0.00 inOvercast
1:53 AM46.9 °F45.0 °F93 %30.39 in2.0 miCalm0.00 inOvercast
2:50 AM46.4 °F44.6 °F93 %30.38 in3.0 miSouth (190°)4.6 mphOvercast
2:53 AM46.9 °F45.0 °F93 %30.39 in3.0 miSouth (190°)4.6 mphOvercast
3:28 AM46.4 °F44.6 °F93 %30.38 in2.5 miSouth (170°)3.5 mphOvercast
3:53 AM46.9 °F45.0 °F93 %30.38 in3.0 miCalm0.00 inOvercast
4:06 AM46.4 °F44.6 °F93 %30.37 in2.5 miCalm0.00 inRainLight Rain
4:15 AM46.4 °F44.6 °F93 %30.37 in3.0 miSSE (150°)5.8 mph0.00 inOvercast
4:28 AM46.4 °F44.6 °F93 %30.36 in3.0 miVariable3.5 mphOvercast
4:50 AM46.4 °F44.6 °F93 %30.36 in1.8 miSSE (160°)4.6 mph0.00 inRainLight Rain
4:53 AM46.9 °F45.0 °F93 %30.36 in1.5 miSSE (160°)3.5 mph0.01 inRainLight Rain
5:02 AM46.4 °F44.6 °F93 %30.35 in3.0 miVariable4.6 mph0.00 inRainLight Rain
5:53 AM46.9 °F44.1 °F90 %30.35 in4.0 miSSE (150°)4.6 mph0.01 inRainLight Rain
6:41 AM46.4 °F44.6 °F93 %30.33 in2.0 miVariable5.8 mph0.01 inRainLight Rain
6:51 AM46.4 °F44.6 °F93 %30.33 in1.5 miSouth (170°)8.1 mph0.02 inRainLight Rain
6:53 AM46.9 °F44.1 °F90 %30.33 in1.5 miVariable4.6 mph0.02 inRainLight Rain
7:00 AM46.4 °F44.6 °F93 %30.33 in1.5 miVariable6.9 mph0.01 inRainLight Rain
7:22 AM46.4 °F44.6 °F93 %30.32 in2.0 miSSE (160°)5.8 mph0.03 inRainLight Rain
7:32 AM46.4 °F44.6 °F93 %30.32 in1.8 miSouth (170°)6.9 mph0.05 inRainLight Rain
7:40 AM46.4 °F44.6 °F93 %30.31 in2.0 miSE (140°)5.8 mph0.06 inRainLight Rain
7:53 AM46.9 °F44.1 °F90 %30.32 in2.5 miSSE (150°)4.6 mph0.07 inRainLight Rain
8:10 AM46.4 °F44.6 °F93 %30.32 in2.0 miSouth (180°)9.2 mph0.01 inRainLight Rain
8:18 AM46.4 °F44.6 °F93 %30.32 in1.5 miSouth (180°)8.1 mph0.02 inRainLight Rain
8:26 AM46.4 °F44.6 °F93 %30.32 in0.8 miSouth (180°)8.1 mph0.03 inRainLight Rain
8:53 AM48.0 °F44.1 °F86 %30.33 in0.5 miSouth (170°)8.1 mph0.09 inFog-RainLight Rain
9:38 AM48.2 °F44.6 °F87 %30.32 in0.8 miSouth (190°)6.9 mph0.05 inRainLight Rain
9:53 AM48.0 °F45.0 °F89 %30.32 in0.8 miSouth (190°)6.9 mph21.9 mph0.06 inRainLight Rain
10:04 AM48.2 °F44.6 °F87 %30.32 in0.8 miSSE (160°)6.9 mph0.01 inRainLight Rain
10:25 AM48.2 °F46.4 °F93 %30.33 in0.5 miVariable5.8 mph0.02 inFog-RainLight Rain
10:37 AM48.2 °F46.4 °F93 %30.33 in0.2 miSouth (190°)4.6 mph0.04 inFog-RainLight Rain
10:53 AM48.9 °F46.0 °F90 %30.32 in0.5 miSouth (170°)10.4 mph16.1 mph0.08 inFog-RainLight Rain
11:20 AM48.2 °F46.4 °F93 %30.32 in1.0 miSouth (170°)9.2 mph19.6 mph0.02 inRainLight Rain
11:26 AM48.2 °F46.4 °F93 %30.31 in0.8 miVariable6.9 mph16.1 mph0.02 inRainLight Rain
11:38 AM48.2 °F46.4 °F93 %30.31 in1.0 miVariable5.8 mphOvercast
11:53 AM48.9 °F46.0 °F90 %30.32 in1.0 miSouth (190°)9.2 mph0.02 inOvercast
12:06 PM48.2 °F46.4 °F93 %30.32 in0.5 miSSW (200°)8.1 mph0.00 inFog-RainLight Rain
12:21 PM50.0 °F46.4 °F87 %30.31 in0.5 miSouth (190°)6.9 mph0.02 inFog-RainLight Rain
12:53 PM50.0 °F46.9 °F89 %30.31 in0.5 miVariable4.6 mph0.05 inFog-RainLight Rain
1:05 PM50.0 °F46.4 °F87 %30.30 in0.5 miSSW (200°)5.8 mph0.00 inFog-RainLight Rain
1:53 PM50.0 °F46.9 °F89 %30.30 in0.5 miSouth (190°)4.6 mph0.01 inFogFog
2:11 PM50.0 °F46.4 °F87 %30.29 in1.5 miSSW (210°)5.8 mphOvercast
2:22 PM50.0 °F46.4 °F87 %30.29 in2.5 miSW (220°)3.5 mphOvercast
2:26 PM50.0 °F46.4 °F87 %30.29 in1.2 miSSW (200°)4.6 mphOvercast
2:37 PM50.0 °F46.4 °F87 %30.29 in2.0 miWSW (240°)4.6 mphOvercast
2:46 PM50.0 °F46.4 °F87 %30.29 in4.0 miWSW (250°)6.9 mphOvercast
2:53 PM50.0 °F46.0 °F86 %30.30 in2.0 miWest (260°)6.9 mph0.00 inRainLight Rain
3:00 PM50.0 °F46.4 °F87 %30.30 in2.5 miWSW (250°)5.8 mph0.00 inRainLight Rain
3:15 PM48.2 °F46.4 °F93 %30.30 in1.2 miWest (260°)6.9 mph0.00 inOvercast
3:27 PM48.2 °F46.4 °F93 %30.30 in0.5 miWSW (240°)4.6 mph0.00 inFogFog
3:53 PM48.9 °F46.0 °F90 %30.31 in0.5 miCalm0.00 inFogFog
4:13 PM48.2 °F46.4 °F93 %30.30 in0.8 miWSW (250°)4.6 mphOvercast
4:24 PM48.2 °F46.4 °F93 %30.31 in1.0 miWest (270°)4.6 mphOvercast
4:45 PM48.2 °F44.6 °F87 %30.31 in0.8 miWNW (300°)5.8 mph0.01 inRainLight Rain
4:53 PM48.0 °F44.1 °F86 %30.31 in1.2 miWNW (300°)6.9 mph0.01 inOvercast
4:59 PM48.2 °F44.6 °F87 %30.31 in1.5 miWNW (300°)5.8 mphOvercast
5:19 PM46.4 °F44.6 °F93 %30.31 in2.0 miWNW (300°)4.6 mphOvercast
5:28 PM46.4 °F42.8 °F87 %30.31 in4.0 miWNW (300°)4.6 mphOvercast
5:53 PM46.9 °F43.0 °F86 %30.32 in3.0 miNNW (330°)3.5 mphOvercast
6:53 PM46.0 °F42.1 °F86 %30.32 in7.0 miCalmOvercast
7:46 PM44.6 °F42.8 °F93 %30.32 in1.5 miCalmOvercast
7:53 PM46.0 °F42.1 °F86 %30.32 in1.0 miCalmOvercast
7:57 PM46.4 °F42.8 °F87 %30.31 in2.0 miCalmOvercast
8:05 PM44.6 °F42.8 °F93 %30.31 in3.0 miCalmOvercast
8:16 PM44.6 °F42.8 °F93 %30.31 in1.8 miCalmOvercast
8:19 PM44.6 °F42.8 °F93 %30.32 in0.8 miCalmOvercast
8:30 PM46.4 °F42.8 °F87 %30.32 in0.5 miCalmFogFog
8:42 PM46.4 °F42.8 °F87 %30.33 in1.2 miCalmOvercast
8:49 PM46.4 °F42.8 °F87 %30.33 in2.0 miCalmOvercast
8:53 PM46.0 °F43.0 °F89 %30.33 in2.5 miCalmOvercast
9:03 PM46.4 °F42.8 °F87 %30.33 in1.8 miCalmOvercast
9:11 PM46.4 °F42.8 °F87 %30.33 in0.8 miCalm0.00 inRainLight Rain
9:20 PM46.4 °F42.8 °F87 %30.33 in1.0 miCalm0.00 inOvercast
9:48 PM46.4 °F42.8 °F87 %30.33 in1.5 miCalm0.00 inOvercast
9:49 PM46.0 °F42.1 °F86 %30.34 in1.5 miCalm0.00 inOvercast
10:14 PM44.6 °F42.8 °F93 %30.33 in3.0 miCalmOvercast
10:50 PM44.6 °F41.0 °F87 %30.34 in6.0 miCalmOvercast
10:53 PM45.0 °F41.0 °F86 %30.34 in6.0 miCalmOvercast
11:33 PM44.6 °F41.0 °F87 %30.35 in1.8 miCalmOvercast
11:44 PM44.6 °F41.0 °F87 %30.34 in0.8 miCalmOvercast
11:53 PM43.0 °F39.9 °F89 %30.35 in0.2 miCalmFogFog
Hourly data recorded from KUIL, located miles away from Clearwater, Washington







STORIES FROM OUR PARTNERS